Voltar ao catálogo

COSMOS 1085

AtivoMilitarLEO
NORAD 11300·PAYLOAD·🇷🇺 Russia

Lançado Mar 15, 1979 de Plesetsk Cosmodrome

Loading…

Próximas Passagens (próximas 24 horas)

TLE

AtualizadoSource: Space-Track

Época: Sep 14, 2026, 10:35 UTC

1 11300U 79024E   26257.44146521 -.00000029  00000-0 -94811-4 0  9996
2 11300  74.0319  60.7833 0024885 329.3082  58.5744 12.45294874159400

Acompanhe COSMOS 1085 em tempo real com AllMySat

Download on the App Store